Regional Weather Roundup
Issued by NWS Goodland, KS

Home | Current Version | Previous Version | Text Only | Print | Product List | Glossary On
Versions: 1 2 3 4 5 6 7 8 9 10 11 12 13 14 15 16 17 18 19 20 21 22 23 24 25 26 27 28 29 30 31 32 33 34 35 36 37 38 39 40 41 42 43 44 45 46 47 48 49 50
000
ASUS43 KGLD 211508
RWRGLD

GOODLAND FORECAST AREA HOURLY WEATHER ROUNDUP
NATIONAL WEATHER SERVICE GOODLAND KS
800 AM MST WED FEB 21 2018

...OFFICIAL OBSERVATIONS...

CITY           SKY/WX    TMP DP  RH WIND       PRES   REMARKS
GOODLAND KS    SUNNY      7   1  76 SE9       30.40R
HILL CITY KS   CLOUDY    11   3  70 E5        30.55R
IMPERIAL NEB   SUNNY      4  -2  76 W3        30.40R
MCCOOK NEB     SUNNY      7   1  76 W5        30.50R
AKRON CO       SUNNY     14   2  58 S9        30.28R
BURLINGTON CO  SUNNY     11   2  67 S6        30.35R
LIMON CO       SUNNY      8   4  83 CALM      30.25R
$$

...UNOFFICIAL OBSERVATIONS...

CITY           SKY/WX    TMP DP  RH WIND       PRES   REMARKS
COLBY KS       SUNNY     12   9  85 SE7       30.47R
LENORA KS        N/A      4  32 100 CALM        N/A
NORTON KS      SUNNY     10   1  67 SE5       30.52R
SHARON SPRINGS   N/A     11   5  77 CALM        N/A
TRENTON NEB      N/A      4  32 100 CALM        N/A
KIT CARSON CO    N/A      2  -3  79 CALM        N/A
$$




USA.gov is the U.S. government's official web portal to all federal, state and local government web resources and services.